FW9870 Weather Reports


time (UTC)temp
F
wind
direction
speed
knots
gust
knots
rain 1hr
in
rain 24hr
in
rain mn
in
humidity
%
barometer
mb
20260505070042 65 212 6.1 13.0 0.00 0.00 0.00 65 1001.7
20260505065524 65 207 7.0 13.0 0.00 0.00 0.00 65 1001.9
20260505065021 64 211 5.2 12.2 0.00 0.00 0.00 65 1001.7
20260505064614 65 207 6.1 12.2 0.00 0.00 0.00 65 1001.7
20260505064020 65 217 6.1 12.2 0.00 0.00 0.00 65 1001.7
20260505063521 65 198 7.0 12.2 0.00 0.00 0.00 64 1001.7
20260505063130 65 207 6.1 14.8 0.00 0.00 0.00 64 1001.7
20260505062523 65 213 7.8 14.8 0.00 0.00 0.00 63 1001.7
20260505062021 65 232 7.0 13.9 0.00 0.00 0.00 63 1001.7
20260505061541 65 219 7.8 13.9 0.00 0.00 0.00 63 1001.7
20260505061020 65 221 6.1 11.3 0.00 0.00 0.00 62 1001.6
20260505060520 65 232 7.0 13.0 0.00 0.00 0.00 61 1001.6
20260505060046 65 230 6.1 13.0 0.00 0.00 0.00 61 1001.6
20260505055521 65 234 6.1 11.3 0.00 0.00 0.00 60 1001.8
20260505055022 65 195 5.2 12.2 0.00 0.00 0.00 59 1001.7
20260505054548 65 214 6.1 12.2 0.00 0.00 0.00 59 1001.8
20260505054022 65 206 6.1 11.3 0.00 0.00 0.00 58 1001.8
20260505053523 65 206 3.5 7.8 0.00 0.00 0.00 58 1001.7
20260505053035 65 209 4.3 12.2 0.00 0.00 0.00 58 1001.7
20260505052521 65 213 4.3 12.2 0.00 0.00 0.00 58 1001.8
20260505052021 65 217 5.2 9.6 0.00 0.00 0.00 58 1001.9
20260505051542 66 221 3.5 9.6 0.00 0.00 0.00 57 1001.8
20260505051021 66 217 5.2 9.6 0.00 0.00 0.00 57 1001.8
20260505050520 66 213 6.1 12.2 0.00 0.00 0.00 57 1001.9
20260505041540 66 219 6.1 13.9 0.00 0.00 0.00 54 1002.2
20260505041023 66 246 7.0 13.9 0.00 0.00 0.00 53 1002.2
20260505040524 65 240 7.0 13.0 0.00 0.00 0.00 53 1002.2
20260505040058 64 231 6.1 14.8 0.00 0.00 0.00 54 1002.1
20260505035521 63 222 7.8 14.8 0.00 0.00 0.00 55 1002.0
20260505035020 60 222 4.3 11.3 0.00 0.00 0.00 58 1001.9
20260505034603 59 239 3.5 7.0 0.00 0.00 0.00 62 1001.8
20260505034023 57 240 2.6 6.1 0.00 0.00 0.00 65 1001.8
20260505033524 55 220 2.6 5.2 0.00 0.00 0.00 69 1001.9
20260505033043 53 234 2.6 5.2 0.00 0.00 0.00 74 1001.9
20260505032547 52 223 1.7 5.2 0.00 0.00 0.00 76 1002.0
20260505032026 52 234 1.7 3.5 0.00 0.00 0.00 77 1002.1
20260505031544 52 234 1.7 2.6 0.00 0.00 0.00 78 1002.0
20260505031022 52 234 1.7 3.5 0.00 0.00 0.00 77 1002.1
20260505030523 52 234 1.7 3.5 0.00 0.00 0.00 77 1002.0
20260505030047 52 234 0.9 2.6 0.00 0.00 0.00 77 1001.8
20260505025521 52 234 1.7 2.6 0.00 0.00 0.00 77 1002.0
20260505025023 52 234 1.7 3.5 0.00 0.00 0.00 76 1002.1
20260505024536 52 234 1.7 3.5 0.00 0.00 0.00 76 1002.1
20260505024021 52 234 1.7 3.5 0.00 0.00 0.00 76 1002.1
20260505023521 53 0 0.0 0.0 0.00 0.00 0.00 76 1002.3
20260505023046 53 0 0.0 0.0 0.00 0.00 0.00 76 1002.4
20260505022521 53 0 0.0 0.0 0.00 0.00 0.00 77 1002.4
20260505022021 53 0 0.0 0.0 0.00 0.00 0.00 76 1002.4
20260505021541 54 0 0.0 0.0 0.00 0.00 0.00 76 1002.4
20260505021024 54 0 0.0 0.0 0.00 0.00 0.00 76 1002.6
20260505020521 54 0 0.0 0.0 0.00 0.00 0.00 75 1002.6
20260505020053 54 0 0.0 0.0 0.00 0.00 0.00 74 1002.6
20260505015522 55 0 0.0 0.0 0.00 0.00 0.00 73 1002.6
20260505015023 55 0 0.0 1.7 0.00 0.00 0.00 72 1002.6
20260505014542 55 0 0.0 2.6 0.00 0.00 0.00 72 1002.6
20260505014021 56 234 0.9 2.6 0.00 0.00 0.00 71 1002.4
20260505013525 57 0 0.0 0.0 0.00 0.00 0.00 69 1002.4
20260505013042 57 0 0.0 0.0 0.00 0.00 0.00 67 1002.4
20260505012522 57 0 0.0 0.0 0.00 0.00 0.00 68 1002.4
20260505012021 58 0 0.0 0.0 0.00 0.00 0.00 67 1002.5
20260505011546 58 0 0.0 0.0 0.00 0.00 0.00 63 1002.4
20260505011021 59 0 0.0 0.0 0.00 0.00 0.00 62 1002.4
20260505010521 59 0 0.0 0.0 0.00 0.00 0.00 60 1002.4
20260505010104 60 0 0.0 0.0 0.00 0.00 0.00 60 1002.4
20260505005521 60 0 0.0 0.0 0.00 0.00 0.00 58 1002.5
20260505005021 61 0 0.0 0.0 0.00 0.00 0.00 59 1002.4
20260505004558 61 0 0.0 0.0 0.00 0.00 0.00 54 1002.3
20260505004021 62 0 0.0 0.0 0.00 0.00 0.00 54 1002.2
20260505003525 63 0 0.0 0.0 0.00 0.00 0.00 53 1002.3
20260505003042 63 0 0.0 0.0 0.00 0.00 0.00 51 1002.1
20260505002521 64 0 0.0 0.0 0.00 0.00 0.00 50 1002.1
20260505002110 65 0 0.0 0.0 0.00 0.00 0.00 50 1002.2
20260505001543 66 0 0.0 0.0 0.00 0.00 0.00 50 1002.3
20260505001025 67 0 0.0 0.0 0.00 0.00 0.00 48 1002.3
20260505000523 68 0 0.0 0.0 0.00 0.00 0.00 47 1002.1
20260505000041 69 0 0.0 0.0 0.00 0.00 0.00 45 1002.2
20260504235523 70 0 0.0 1.7 0.00 0.00 0.00 40 1002.2
20260504235021 71 0 0.0 1.7 0.00 0.00 0.00 39 1002.2
20260504234544 72 234 0.9 3.5 0.00 0.00 0.00 38 1002.3
20260504234021 72 234 1.7 4.3 0.00 0.00 0.00 36 1002.3
20260504233521 72 234 1.7 4.3 0.00 0.00 0.00 35 1002.2
20260504233046 73 234 1.7 4.3 0.00 0.00 0.00 35 1002.2
20260504232521 73 245 1.7 4.3 0.00 0.00 0.00 35 1002.1
20260504232020 73 229 2.6 4.3 0.00 0.00 0.00 35 1002.1
20260504231558 73 227 1.7 4.3 0.00 0.00 0.00 36 1002.0
20260504231020 73 230 1.7 6.1 0.00 0.00 0.00 35 1002.0
20260504230524 73 234 2.6 8.7 0.00 0.00 0.00 34 1002.1
20260504230042 74 246 3.5 9.6 0.00 0.00 0.00 34 1002.0
20260504225521 74 238 5.2 13.0 0.00 0.00 0.00 32 1001.9
20260504225021 74 211 4.3 13.0 0.00 0.00 0.00 35 1001.9
20260504224543 74 219 2.6 7.8 0.00 0.00 0.00 35 1002.0
20260504224021 74 217 4.3 10.4 0.00 0.00 0.00 33 1002.1
20260504223520 74 244 5.2 10.4 0.00 0.00 0.00 32 1002.2
20260504223041 74 250 4.3 12.2 0.00 0.00 0.00 33 1002.2
20260504222521 74 238 4.3 12.2 0.00 0.00 0.00 34 1002.2
20260504222025 74 212 7.8 12.2 0.00 0.00 0.00 33 1002.3
20260504221612 74 236 5.2 13.0 0.00 0.00 0.00 32 1002.3
20260504221023 74 245 7.0 13.0 0.00 0.00 0.00 34 1002.3
20260504220523 74 210 7.0 12.2 0.00 0.00 0.00 32 1002.3
20260504220043 75 210 5.2 12.2 0.00 0.00 0.00 34 1002.4
20260504215522 74 263 7.8 12.2 0.00 0.00 0.00 33 1002.4
20260504215024 74 271 5.2 13.9 0.00 0.00 0.00 34 1002.4
20260504214538 74 241 7.8 13.9 0.00 0.00 0.00 33 1002.5
20260504214022 74 252 7.0 12.2 0.00 0.00 0.00 33 1002.5
20260504213523 75 254 6.1 12.2 0.00 0.00 0.00 32 1002.5
20260504213044 75 244 6.1 14.8 0.00 0.00 0.00 34 1002.6
20260504212523 74 242 4.3 16.5 0.00 0.00 0.00 35 1002.7
20260504212022 74 228 10.4 16.5 0.00 0.00 0.00 31 1002.7
20260504211541 75 213 7.0 13.9 0.00 0.00 0.00 36 1002.7
20260504211023 75 261 7.8 13.9 0.00 0.00 0.00 34 1002.8
20260504210523 74 284 7.0 13.9 0.00 0.00 0.00 34 1002.7
20260504210047 74 252 7.0 14.8 0.00 0.00 0.00 34 1002.7
20260504205524 74 197 6.1 15.6 0.00 0.00 0.00 37 1002.7
20260504205026 74 271 8.7 15.6 0.00 0.00 0.00 37 1002.7
20260504204542 73 238 8.7 15.6 0.00 0.00 0.00 37 1002.8
20260504204024 73 256 9.6 15.6 0.00 0.00 0.00 36 1002.8
20260504203523 73 226 7.0 15.6 0.00 0.00 0.00 39 1002.9
20260504203045 73 260 8.7 15.6 0.00 0.00 0.00 38 1003.0
20260504202523 74 229 6.1 16.5 0.00 0.00 0.00 37 1003.0
20260504202023 74 248 8.7 16.5 0.00 0.00 0.00 36 1003.1
20260504201544 74 274 8.7 14.8 0.00 0.00 0.00 37 1003.1
20260504201022 74 242 5.2 18.2 0.00 0.00 0.00 39 1003.1
20260504200524 73 241 9.6 18.2 0.00 0.00 0.00 37 1003.4
20260504200041 74 200 6.1 13.9 0.00 0.00 0.00 40 1003.4
20260504195523 73 194 7.8 13.9 0.00 0.00 0.00 37 1003.5
20260504195023 73 232 8.7 15.6 0.00 0.00 0.00 37 1003.5
20260504194549 74 240 9.6 16.5 0.00 0.00 0.00 37 1003.5
20260504194023 73 264 8.7 16.5 0.00 0.00 0.00 40 1003.6
20260504193523 73 264 7.0 14.8 0.00 0.00 0.00 38 1003.5
20260504193046 73 282 10.4 14.8 0.00 0.00 0.00 38 1003.7
20260504192523 73 271 7.0 14.8 0.00 0.00 0.00 41 1003.8
20260504192025 72 292 7.0 14.8 0.00 0.00 0.00 43 1003.7
20260504191608 72 261 7.0 14.8 0.00 0.00 0.00 40 1003.6
20260504191023 72 281 7.0 14.8 0.00 0.00 0.00 44 1003.7
20260504190523 72 243 7.8 15.6 0.00 0.00 0.00 43 1003.8
20260504190045 71 263 8.7 15.6 0.00 0.00 0.00 46 1003.9
20260504185522 71 229 10.4 17.4 0.00 0.00 0.00 43 1003.9
20260504185022 71 207 10.4 17.4 0.00 0.00 0.00 46 1003.9
20260504184554 71 227 7.8 16.5 0.00 0.00 0.00 43 1004.0
20260504184023 71 289 8.7 16.5 0.00 0.00 0.00 45 1004.0
20260504183522 71 300 8.7 15.6 0.00 0.00 0.00 43 1004.1
20260504183041 71 269 9.6 19.1 0.00 0.00 0.00 42 1004.3
20260504182527 71 309 9.6 21.7 0.00 0.00 0.00 43 1004.3
20260504182022 71 211 11.3 21.7 0.00 0.00 0.00 44 1004.2
20260504181542 71 236 9.6 19.1 0.00 0.00 0.00 43 1004.2
20260504181023 71 236 9.6 16.5 0.00 0.00 0.00 44 1004.4
20260504180524 71 272 8.7 16.5 0.00 0.00 0.00 46 1004.4
20260504180040 70 234 9.6 15.6 0.00 0.00 0.00 47 1004.4
20260504175523 70 258 7.0 15.6 0.00 0.00 0.00 46 1004.4
20260504175023 70 247 6.1 20.0 0.00 0.00 0.00 46 1004.5
20260504174544 69 257 10.4 20.0 0.00 0.00 0.00 45 1004.7
20260504174023 69 257 13.0 18.2 0.00 0.00 0.00 45 1004.6
20260504173523 69 239 9.6 19.1 0.00 0.00 0.00 47 1004.7
20260504173044 69 223 12.2 19.1 0.00 0.00 0.00 49 1004.7
20260504172522 69 202 7.8 17.4 0.00 0.00 0.00 47 1004.6
20260504172023 68 225 8.7 13.9 0.00 0.00 0.00 47 1004.8
20260504171546 69 240 8.7 13.9 0.00 0.00 0.00 49 1004.9
20260504171025 68 245 8.7 15.6 0.00 0.00 0.00 47 1005.0
20260504170522 68 225 7.8 15.6 0.00 0.00 0.00 49 1004.9
20260504151111 63 221 7.8 15.6 0.00 0.00 0.00 51 1005.5
20260504150526 63 242 7.0 14.8 0.00 0.00 0.00 54 1005.5
20260504141026 61 236 10.4 19.1 0.00 0.00 0.00 53 1005.7
20260504140523 61 220 8.7 16.5 0.00 0.00 0.00 52 1005.8
20260504130523 59 219 7.0 13.9 0.00 0.00 0.00 55 1006.4
20260504110520 54 218 7.8 16.5 0.00 0.00 0.00 55 1006.1
20260504100522 53 200 7.8 13.0 0.00 0.00 0.00 55 1006.0
20260504081544 52 212 7.0 12.2 0.00 0.00 0.00 57 1006.5
20260504081025 52 224 5.2 10.4 0.00 0.00 0.00 57 1006.5
20260504080522 53 223 7.0 13.0 0.00 0.00 0.00 56 1006.4